When you browse on this site, cookies collect data to enhance your experience and personalize the content and advertising you see.
Visit our Privacy Policy to learn more. By continuing to use the site, you agree to this use of cookies and data.
  • In Lithuania
  • List of Countries
  • For 7 days
  • Water Temperature
  • Satellite Maps
  • Weather Map
  • Weather Widgets
  • user-avatar
    Login

    Hourly Weather Krasnaya Sloboda

    Today, 19 March, Tuesday

    Time Temperature Precipitation Wind Pressure Humidity
    00:00 -1°C° 0 mm 6 mps 746 mmHg 98%
    01:00 -2°C° 0 mm 6 mps 746 mmHg 95%
    02:00 -2°C° 0 mm 6 mps 746 mmHg 93%
    03:00 -2°C° 0 mm 6 mps 746 mmHg 90%
    04:00 -2°C° 0 mm 6 mps 746 mmHg 90%
    05:00 -2°C° 0 mm 6 mps 745 mmHg 89%
    06:00 -2°C° 0 mm 6 mps 745 mmHg 88%
    07:00 -2°C° 0 mm 6 mps 745 mmHg 89%
    08:00 -2°C° 0 mm 6 mps 745 mmHg 90%
    09:00 -1°C° 0 mm 6 mps 746 mmHg 91%
    10:00 -1°C° 0 mm 6 mps 746 mmHg 94%
    11:00 -1°C° 0 mm 6 mps 746 mmHg 96%
    12:00 -1°C° 0 mm 6 mps 746 mmHg 99%
    13:00 0°C° 0 mm 5 mps 746 mmHg 99%
    14:00 0°C° 0 mm 5 mps 746 mmHg 99%
    15:00 0°C° 0 mm 5 mps 746 mmHg 99%
    16:00 0°C° 0.1 mm 4 mps 746 mmHg 99%
    17:00 0°C° 0.1 mm 4 mps 746 mmHg 99%
    18:00 0°C° 0.1 mm 4 mps 746 mmHg 98%
    19:00 0°C° 0 mm 4 mps 747 mmHg 98%
    20:00 0°C° 0 mm 4 mps 747 mmHg 98%
    21:00 0°C° 0 mm 4 mps 747 mmHg 97%
    22:00 +1°C° 0.3 mm 3 mps 747 mmHg 98%
    23:00 +1°C° 0.3 mm 3 mps 746 mmHg 98%

    Tomorrow, 20 March, Wednesday

    Time Temperature Precipitation Wind Pressure Humidity
    00:00 +1°C° 0.3 mm 3 mps 746 mmHg 99%
    01:00 0°C° 0.4 mm 3 mps 746 mmHg 99%
    02:00 0°C° 0.4 mm 3 mps 746 mmHg 99%
    03:00 0°C° 0.4 mm 3 mps 746 mmHg 99%
    04:00 0°C° 0 mm 3 mps 746 mmHg 99%
    05:00 0°C° 0 mm 3 mps 746 mmHg 99%
    06:00 0°C° 0 mm 3 mps 746 mmHg 98%
    07:00 0°C° 0 mm 3 mps 746 mmHg 97%
    08:00 0°C° 0 mm 3 mps 746 mmHg 96%
    09:00 0°C° 0 mm 3 mps 746 mmHg 95%
    10:00 0°C° 0 mm 3 mps 747 mmHg 96%
    11:00 0°C° 0 mm 3 mps 747 mmHg 97%
    12:00 +1°C° 0 mm 3 mps 747 mmHg 98%
    13:00 +1°C° 0 mm 3 mps 747 mmHg 98%
    14:00 +1°C° 0 mm 3 mps 747 mmHg 97%
    15:00 0°C° 0 mm 3 mps 747 mmHg 97%
    16:00 0°C° 0 mm 3 mps 747 mmHg 96%
    17:00 0°C° 0 mm 3 mps 747 mmHg 94%
    18:00 0°C° 0 mm 3 mps 747 mmHg 93%
    19:00 -1°C° 0 mm 3 mps 747 mmHg 91%
    20:00 -1°C° 0 mm 3 mps 747 mmHg 89%
    21:00 -1°C° 0 mm 3 mps 747 mmHg 88%
    22:00 -1°C° 0 mm 3 mps 747 mmHg 88%
    23:00 -2°C° 0 mm 3 mps 747 mmHg 88%

    Day after tomorrow, 21 March, Thursday

    Time Temperature Precipitation Wind Pressure Humidity
    00:00 -2°C° 0 mm 3 mps 747 mmHg 89%
    01:00 -2°C° 0 mm 3 mps 746 mmHg 88%
    02:00 -2°C° 0 mm 3 mps 746 mmHg 88%
    03:00 -2°C° 0 mm 3 mps 745 mmHg 88%
    04:00 -3°C° 0 mm 4 mps 745 mmHg 87%
    05:00 -3°C° 0 mm 4 mps 744 mmHg 86%
    06:00 -3°C° 0 mm 4 mps 743 mmHg 86%
    07:00 -4°C° 0.2 mm 5 mps 743 mmHg 87%
    08:00 -4°C° 0.2 mm 5 mps 742 mmHg 89%
    09:00 -4°C° 0.2 mm 6 mps 742 mmHg 91%
    10:00 -2°C° 0.4 mm 5 mps 741 mmHg 92%
    11:00 -2°C° 0.4 mm 5 mps 741 mmHg 94%
    12:00 -1°C° 0.4 mm 4 mps 741 mmHg 95%
    13:00 -1°C° 0.4 mm 5 mps 741 mmHg 95%
    14:00 -1°C° 0.4 mm 5 mps 741 mmHg 94%
    15:00 0°C° 0.4 mm 5 mps 741 mmHg 94%
    16:00 0°C° 0 mm 4 mps 741 mmHg 92%
    17:00 0°C° 0 mm 4 mps 741 mmHg 89%
    18:00 -1°C° 0 mm 4 mps 741 mmHg 87%
    19:00 -1°C° 0 mm 4 mps 742 mmHg 88%
    20:00 -1°C° 0 mm 4 mps 742 mmHg 89%
    21:00 -2°C° 0 mm 4 mps 743 mmHg 90%
    22:00 -2°C° 0 mm 4 mps 743 mmHg 91%
    23:00 -2°C° 0 mm 4 mps 743 mmHg 93%

    22 March, Friday

    Time Temperature Precipitation Wind Pressure Humidity
    00:00 -2°C° 0 mm 4 mps 743 mmHg 94%
    01:00 -2°C° 0 mm 4 mps 744 mmHg 94%
    02:00 -2°C° 0 mm 4 mps 744 mmHg 94%
    03:00 -1°C° 0 mm 3 mps 744 mmHg 95%
    04:00 -2°C° 0 mm 3 mps 744 mmHg 95%
    05:00 -2°C° 0 mm 3 mps 745 mmHg 96%
    06:00 -4°C° 0 mm 3 mps 745 mmHg 97%
    07:00 -2°C° 0 mm 3 mps 745 mmHg 95%
    08:00 -2°C° 0 mm 2 mps 745 mmHg 94%
    09:00 -1°C° 0 mm 2 mps 745 mmHg 92%
    10:00 -1°C° 0 mm 2 mps 745 mmHg 93%
    11:00 -1°C° 0 mm 2 mps 745 mmHg 93%
    12:00 +1°C° 0 mm 2 mps 745 mmHg 94%
    13:00 0°C° 0 mm 3 mps 745 mmHg 93%
    14:00 +1°C° 0 mm 3 mps 745 mmHg 92%
    15:00 +1°C° 0 mm 3 mps 744 mmHg 91%
    16:00 +1°C° 0 mm 3 mps 744 mmHg 90%
    17:00 0°C° 0 mm 4 mps 744 mmHg 89%
    18:00 0°C° 0 mm 4 mps 743 mmHg 88%
    19:00 0°C° 0 mm 4 mps 743 mmHg 89%
    20:00 0°C° 0 mm 4 mps 743 mmHg 90%
    21:00 0°C° 0 mm 5 mps 743 mmHg 91%
    22:00 0°C° 0 mm 5 mps 742 mmHg 93%
    23:00 -1°C° 0 mm 6 mps 741 mmHg 95%

    23 March, Saturday

    Time Temperature Precipitation Wind Pressure Humidity
    00:00 -1°C° 0 mm 6 mps 740 mmHg 96%
    01:00 +1°C° 0.4 mm 6 mps 739 mmHg 96%
    02:00 0°C° 0.4 mm 7 mps 738 mmHg 96%
    03:00 0°C° 0.4 mm 7 mps 737 mmHg 96%
    04:00 0°C° 0.6 mm 7 mps 737 mmHg 96%
    05:00 +1°C° 0.6 mm 8 mps 736 mmHg 95%
    06:00 +1°C° 0.6 mm 8 mps 735 mmHg 95%
    07:00 +1°C° 0.1 mm 8 mps 735 mmHg 92%
    08:00 +1°C° 0.1 mm 8 mps 735 mmHg 88%
    09:00 +2°C° 0.1 mm 8 mps 735 mmHg 85%
    10:00 +1°C° 0 mm 8 mps 735 mmHg 79%
    11:00 +1°C° 0 mm 9 mps 735 mmHg 72%
    12:00 0°C° 0 mm 10 mps 735 mmHg 66%
    13:00 0°C° 0 mm 10 mps 736 mmHg 65%
    14:00 0°C° 0 mm 10 mps 736 mmHg 64%
    15:00 -2°C° 0 mm 10 mps 736 mmHg 63%
    16:00 -1°C° 0 mm 9 mps 736 mmHg 64%
    17:00 -1°C° 0 mm 9 mps 737 mmHg 64%
    18:00 -3°C° 0 mm 9 mps 737 mmHg 65%
    19:00 -2°C° 0 mm 8 mps 737 mmHg 66%
    20:00 -4°C° 0 mm 8 mps 738 mmHg 67%
    21:00 -4°C° 0 mm 8 mps 738 mmHg 68%
    22:00 -4°C° 0 mm 8 mps 738 mmHg 68%
    23:00 -4°C° 0 mm 8 mps 739 mmHg 67%

    24 March, Sunday

    Time Temperature Precipitation Wind Pressure Humidity
    00:00 -4°C° 0 mm 7 mps 739 mmHg 67%
    01:00 -4°C° 0 mm 7 mps 739 mmHg 68%
    02:00 -4°C° 0 mm 7 mps 740 mmHg 68%
    03:00 -4°C° 0 mm 7 mps 740 mmHg 69%
    04:00 -4°C° 0 mm 7 mps 740 mmHg 69%
    05:00 -5°C° 0 mm 6 mps 740 mmHg 70%
    06:00 -5°C° 0 mm 6 mps 740 mmHg 70%
    07:00 -4°C° 0 mm 6 mps 740 mmHg 68%
    08:00 -4°C° 0 mm 6 mps 741 mmHg 65%
    09:00 -2°C° 0 mm 5 mps 741 mmHg 63%
    10:00 -1°C° 0 mm 5 mps 740 mmHg 57%
    11:00 0°C° 0 mm 5 mps 740 mmHg 52%
    12:00 +1°C° 0 mm 5 mps 740 mmHg 47%
    13:00 +1°C° 0 mm 5 mps 739 mmHg 49%
    14:00 +2°C° 0 mm 5 mps 738 mmHg 51%
    15:00 +2°C° 0 mm 5 mps 737 mmHg 53%
    16:00 +1°C° 0.4 mm 5 mps 736 mmHg 60%
    17:00 0°C° 0.4 mm 5 mps 735 mmHg 67%
    18:00 0°C° 0.4 mm 5 mps 734 mmHg 75%
    19:00 -1°C° 0.8 mm 6 mps 732 mmHg 80%
    20:00 -1°C° 0.8 mm 7 mps 731 mmHg 85%
    21:00 -1°C° 0.8 mm 8 mps 729 mmHg 90%
    22:00 0°C° 0.4 mm 8 mps 728 mmHg 91%
    23:00 +1°C° 0.4 mm 8 mps 726 mmHg 92%
    Show more